Probability
0 0 0 0 0 0 0 0 0 0 0 0 0 0 0 0 0 0 0 0 0 1 3 7 9 7 6 5 5 7 7 5 4 3 3 3 3 3 4 4 4 2 0 0 0 0 0 0 0
0 0 0 0 0 0 0 0 0 0 0 0 0 0 0 0 0 0 0 0 1 2 3 6 9 8 6 3 3 5 7 5 4 3 3 3 4 4 4 5 4 3 1 1 1 0 0 0 0
0 0 0 0 0 0 0 0 0 0 0 0 0 0 0 0 0 0 0 0 1 2 3 5 8 8 6 3 3 4 5 5 4 3 4 4 5 6 6 5 4 3 3 2 2 1 1 0 0
0 0 0 0 0 0 0 0 0 0 0 0 0 0 0 0 0 0 0 0 1 2 2 3 6 7 7 4 3 3 3 4 3 4 4 5 6 6 6 4 3 3 3 3 3 3 2 1 0
0 0 0 0 0 0 0 0 0 0 0 0 0 0 0 0 0 0 0 1 2 2 2 3 4 6 6 4 3 1 1 2 2 3 4 4 5 6 5 3 3 3 3 3 3 3 3 2 1
0 0 0 0 0 0 0 0 0 0 0 0 0 0 0 0 0 0 0 1 2 3 3 3 4 5 5 4 2 1 0 1 1 1 2 3 3 3 3 2 2 3 3 3 3 3 3 3 3
0 0 0 0 0 0 0 0 0 0 0 0 0 0 0 0 0 0 0 1 2 3 3 3 3 4 4 2 1 0 0 0 0 0 1 1 1 1 1 0 1 1 2 2 2 2 3 3 3
0 0 0 0 0 0 0 0 0 0 0 0 0 0 0 0 0 0 0 1 2 3 3 3 3 3 3 2 0 0 0 0 0 0 0 0 0 0 0 0 0 0 1 1 1 1 1 2 2
0 0 0 0 0 0 0 0 0 0 0 0 0 0 0 0 0 0 0 1 1 2 2 3 3 3 3 2 1 0 0 0 0 0 0 0 0 0 0 0 0 0 0 0 0 0 0 1 1
0 0 0 0 0 0 0 0 0 0 0 0 0 0 0 0 0 0 0 1 1 1 2 3 3 3 3 2 1 0 0 0 0 0 0 0 0 0 0 0 0 0 0 0 0 0 0 0 0
0 0 0 0 0 0 0 0 0 0 0 0 0 0 0 0 0 0 0 1 2 2 3 3 3 3 3 2 1 0 0 0 0 0 0 0 0 0 0 0 0 0 0 0 0 0 0 0 0
0 0 0 0 0 0 0 0 0 0 0 0 0 0 0 0 0 0 0 1 3 3 3 3 3 3 3 2 1 0 0 0 0 0 0 0 0 0 0 0 0 0 0 0 0 0 0 0 0
0 0 0 0 0 0 0 0 0 0 0 0 0 0 0 0 1 0 0 1 2 3 3 3 3 3 3 2 1 0 0 0 0 0 0 0 0 0 0 0 0 0 0 0 0 0 0 0 0
0 0 0 0 0 0 0 0 0 0 0 0 0 0 0 0 0 0 0 1 2 3 3 2 3 3 3 2 1 0 0 0 0 0 0 0 0 0 0 0 0 0 0 0 0 0 0 0 0
0 0 0 0 0 0 0 0 0 0 0 0 0 0 0 0 0 0 0 1 2 3 3 2 2 3 2 1 0 0 0 0 0 0 0 0 0 0 0 0 0 0 0 0 0 0 0 0 0
0 0 0 0 0 0 0 0 0 0 0 0 0 0 0 0 0 0 0 0 1 2 3 2 1 1 1 1 0 0 0 0 0 0 0 0 0 0 0 0 0 0 0 0 0 0 0 0 0
0 0 0 0 0 0 0 0 0 0 0 0 0 0 0 0 0 0 0 0 0 1 3 3 1 0 0 0 0 0 0 0 0 0 0 0 0 0 0 0 0 0 0 0 0 0 0 0 0
0 0 0 0 0 0 0 0 0 0 0 0 0 0 0 0 0 0 0 0 0 1 2 2 2 1 0 0 0 0 0 0 0 0 0 0 0 0 0 0 0 0 0 0 0 0 0 0 0
0 0 0 0 0 0 0 0 0 0 0 0 0 0 0 0 0 0 0 0 0 0 1 1 2 1 0 0 0 0 0 0 0 0 0 0 0 0 0 0 0 0 0 0 0 0 0 0 0
0 0 0 0 0 0 0 0 0 0 0 0 0 0 0 0 0 0 0 0 0 0 0 0 1 1 0 0 0 0 0 0 0 0 0 0 0 0 0 0 0 0 0 0 0 0 0 0 0
0 0 0 0 0 0 0 0 0 0 0 0 0 0 0 0 0 0 0 0 0 0 0 0 0 0 0 0 0 0 0 0 0 0 0 0 0 0 0 0 0 0 0 0 0 0 0 0 0
0 0 0 0 0 0 0 0 0 0 0 0 0 0 0 0 0 0 0 0 0 0 0 0 0 0 0 1 1 0 0 0 0 0 0 0 0 0 0 0 0 0 0 0 0 0 0 0 0
0 0 0 0 0 0 0 0 0 0 0 0 0 0 0 0 0 0 0 0 0 0 0 0 0 0 0 1 2 1 0 0 0 0 0 0 0 0 0 0 0 0 0 0 0 0 0 0 0
0 0 0 0 0 0 0 0 0 0 0 0 0 0 0 0 0 0 0 0 0 0 0 0 0 0 0 1 2 2 1 1 0 0 0 0 0 0 0 0 0 0 0 0 0 0 0 0 0
0 0 0 0 0 0 0 0 0 0 0 0 0 0 0 0 0 0 0 0 0 0 0 0 0 0 0 1 1 2 2 2 1 1 0 0 0 0 0 0 0 0 0 0 0 0 0 0 0
0 0 0 0 0 0 0 0 0 0 0 0 0 0 0 0 0 0 0 0 0 0 0 0 0 0 1 1 1 1 3 3 3 2 1 0 0 0 0 0 0 0 0 0 0 0 0 0 0
0 0 0 0 0 0 0 0 0 0 0 0 0 0 0 0 0 0 0 0 0 0 0 0 0 0 1 2 2 2 3 3 3 3 2 1 0 0 0 0 0 0 0 0 0 0 0 0 0
0 0 0 0 0 0 0 0 0 0 0 0 0 0 0 0 0 0 0 0 0 0 0 0 0 0 1 2 3 3 3 3 3 3 3 1 0 0 0 0 0 0 0 0 0 0 0 0 0
0 0 0 0 0 0 0 0 0 0 0 0 0 0 0 0 0 0 0 0 0 0 0 0 0 0 0 2 3 4 3 3 3 3 2 1 0 0 0 0 0 0 0 0 0 0 0 0 0
0 0 0 0 0 0 0 0 0 0 0 0 0 0 0 0 0 0 0 0 0 0 0 0 0 0 0 1 3 4 3 3 3 3 2 1 0 0 0 0 0 0 0 0 0 0 0 0 0
Wind_Speed
6 3 2 4 6 4 2 4 2 1 1 1 0 1 3 3 3 2 0 2 2 4 3 4 6 8 9 9 10 10 10 10 10 10 11 11 10 10 10 10 10 10 10 10 10 11 11 11 11
2 1 5 5 5 1 5 4 3 4 2 1 2 1 2 0 0 1 0 1 3 4 3 3 6 8 9 9 9 9 9 9 10 10 10 10 10 10 9 9 9 9 9 9 10 10 10 10 10
1 4 5 4 3 5 5 3 4 2 1 0 1 1 1 1 1 1 1 3 4 4 3 4 7 8 8 8 8 8 9 9 9 9 10 10 10 9 9 9 9 9 9 9 9 9 9 10 9
3 5 5 3 4 5 5 2 2 0 1 1 1 0 1 1 1 0 2 5 6 4 3 4 7 8 8 8 8 8 8 8 8 9 9 9 9 9 9 8 8 8 8 8 9 8 9 9 9
4 5 3 0 5 3 3 3 1 1 1 1 1 0 1 2 2 3 4 5 6 4 3 3 7 7 8 8 8 7 7 7 8 8 8 8 8 8 8 8 8 7 7 8 8 8 8 8 8
5 4 3 4 5 3 3 2 1 1 1 1 1 1 2 1 1 2 4 4 4 5 4 3 5 6 7 7 8 7 7 6 6 7 7 7 7 7 8 7 7 7 7 7 7 7 7 7 8
5 4 3 4 4 4 3 1 2 2 2 2 2 2 2 1 1 3 4 4 4 4 4 3 3 4 5 7 7 7 6 6 6 6 7 7 6 7 7 6 6 6 6 7 7 7 7 7 7
4 4 2 3 4 5 2 1 1 3 4 1 3 4 3 2 3 5 5 4 4 3 3 3 3 3 3 4 5 6 6 6 6 6 7 7 6 6 6 5 5 5 6 6 6 6 6 7 7
4 3 5 6 5 4 1 1 1 0 1 1 1 2 1 3 5 5 4 3 2 2 2 2 3 3 3 3 4 4 5 5 5 5 6 6 3 3 3 4 5 5 5 5 6 6 7 7 6
3 4 7 3 4 3 1 2 2 0 1 1 2 1 2 4 5 5 5 5 4 4 3 2 3 3 3 3 3 2 3 2 3 3 3 3 3 3 4 5 5 5 5 5 6 7 7 6 3
3 5 3 2 2 2 1 1 1 2 3 5 4 3 2 3 3 4 5 5 6 5 4 3 3 3 3 3 3 2 2 2 2 3 3 3 3 2 3 2 2 3 4 3 4 4 3 3 2
2 3 2 2 1 1 2 2 2 4 6 3 3 3 3 4 4 5 5 5 4 4 4 4 4 4 3 3 3 3 2 2 2 2 3 2 2 2 1 1 1 1 1 2 2 2 2 2 2
3 3 2 1 1 1 1 3 3 6 6 2 0 2 4 4 4 4 3 3 4 5 5 4 4 5 4 3 3 3 2 2 2 2 2 2 2 2 1 1 1 1 1 1 1 1 2 2 2
2 1 2 2 2 2 2 4 3 7 3 2 2 3 4 5 5 4 4 4 5 6 6 5 5 5 5 4 3 3 3 3 3 2 2 2 2 2 1 1 1 1 1 1 1 1 1 1 1
0 1 3 3 2 2 1 7 8 6 2 3 4 4 4 4 4 5 6 6 6 6 5 6 6 5 5 5 4 3 3 3 3 2 3 3 2 2 2 1 1 0 1 1 1 1 1 1 1
1 0 3 3 2 2 3 10 6 3 3 5 5 4 4 5 5 5 5 5 5 5 5 5 4 5 5 5 4 3 3 3 3 2 2 3 3 3 2 1 1 1 1 1 1 1 1 1 0
0 3 5 4 3 2 4 9 5 2 3 5 5 4 4 5 5 5 4 4 4 4 5 5 5 6 5 5 4 3 3 3 3 2 2 3 3 3 3 2 1 1 1 1 1 1 1 1 0
5 4 4 5 2 2 5 9 7 3 4 5 5 5 5 6 7 5 3 3 3 3 4 4 5 5 4 4 3 2 2 2 2 3 3 3 3 3 3 2 2 2 1 1 1 1 1 1 0
3 4 5 6 2 3 7 10 9 5 4 6 6 6 6 7 5 3 2 1 1 2 3 4 4 4 4 3 4 3 3 3 2 2 3 4 4 4 3 2 2 2 2 2 2 1 1 0 0
4 5 6 5 2 3 6 10 8 6 6 7 8 8 7 6 4 3 2 1 1 1 2 3 4 4 4 4 3 3 3 2 2 2 2 3 3 4 3 3 3 3 2 2 2 2 1 1 1
7 8 7 6 4 2 4 9 6 5 5 5 6 6 6 5 5 3 2 1 1 1 1 2 3 3 4 3 2 2 2 1 1 2 2 2 3 3 3 4 3 3 3 3 3 3 3 2 1
8 6 6 4 2 4 1 7 6 4 5 5 6 4 4 3 3 2 2 1 1 2 1 1 2 3 3 3 4 5 4 3 3 2 2 2 2 3 3 3 3 3 3 3 3 3 3 3 2
5 2 3 4 4 4 3 5 8 2 5 7 6 4 3 2 2 2 2 2 1 1 0 1 2 2 3 3 4 4 3 2 2 2 2 2 2 2 2 2 3 3 3 3 3 3 3 3 3
2 2 1 1 1 6 7 7 8 4 7 5 4 3 2 2 1 1 1 1 1 1 1 1 1 2 2 3 3 4 3 3 3 2 2 2 1 1 2 2 2 2 2 3 3 3 4 3 3
2 3 2 3 2 8 3 5 10 6 4 4 4 3 2 1 1 1 1 1 1 1 1 0 1 1 2 3 3 3 3 4 4 3 3 2 2 2 2 2 2 2 2 2 2 3 3 4 4
4 5 6 5 5 5 3 8 8 3 2 2 1 1 1 1 1 1 1 1 1 1 1 0 1 1 1 2 3 3 3 3 2 3 2 3 2 2 2 2 2 2 2 2 2 2 3 3 3
4 4 3 2 1 3 6 6 7 2 2 1 1 2 2 2 2 2 2 2 2 1 1 0 1 1 1 1 1 2 2 2 2 3 2 2 2 2 2 2 2 2 2 2 2 2 2 2 3
3 4 3 4 3 5 6 5 5 3 3 2 2 2 3 2 2 2 2 2 2 2 2 2 1 1 1 0 1 1 1 1 2 2 2 2 2 1 2 2 2 1 2 2 2 2 2 2 2
3 3 3 3 4 5 5 7 4 4 3 2 3 2 2 2 2 2 2 2 2 2 2 2 2 2 1 1 0 1 1 0 1 1 2 2 1 1 2 2 1 1 1 2 2 2 2 3 2
4 5 5 4 5 4 4 7 2 1 1 2 2 2 2 2 1 1 2 2 2 3 3 3 2 2 1 1 1 0 1 1 1 0 0 1 1 1 1 1 1 1 1 1 2 2 2 3 3
Wind_Direction
343 1 61 58 58 54 235 243 223 239 250 257 303 125 141 152 163 204 344 113 108 131 141 142 132 134 130 126 124 126 124 122 119 118 116 113 110 106 102 99 96 94 93 90 87 85 84 81 77
337 34 57 62 93 167 255 239 218 226 210 38 34 59 77 228 325 91 87 127 117 127 125 135 128 133 132 129 126 127 126 123 121 120 118 116 112 107 104 100 95 94 94 91 88 86 84 81 78
41 55 83 84 134 192 223 222 213 262 252 244 47 37 120 269 319 196 207 137 114 116 112 121 123 129 131 132 129 128 127 126 124 122 118 117 115 111 105 100 96 93 93 92 89 86 83 81 78
77 51 60 90 212 222 222 230 176 300 356 55 134 14 297 322 290 192 124 127 122 116 106 115 120 126 131 134 132 130 128 127 127 123 119 116 114 113 109 104 98 95 93 93 90 86 83 81 78
62 79 76 233 240 247 245 252 194 169 326 1 114 175 289 345 43 97 121 126 129 124 111 118 117 122 125 127 132 131 128 125 127 124 121 118 114 109 107 104 101 97 94 95 93 89 85 80 77
64 76 122 224 243 256 259 243 161 212 239 304 133 179 253 5 68 104 115 115 121 124 114 109 117 118 123 125 120 117 121 123 126 126 123 119 114 110 106 102 99 97 96 97 95 90 89 83 80
112 115 184 210 241 257 247 197 171 202 231 235 180 167 266 298 116 109 101 99 101 108 110 111 121 122 123 118 114 111 112 113 112 113 117 114 108 104 100 98 97 99 97 98 96 92 88 83 78
127 121 181 209 220 249 242 137 194 195 231 241 157 174 228 220 119 105 95 92 95 98 108 117 114 111 121 123 112 108 104 103 101 97 95 95 95 95 92 90 90 96 97 97 95 91 86 81 75
103 113 214 210 201 234 209 144 314 291 180 307 212 206 237 121 116 111 103 98 110 117 123 129 127 123 120 120 110 106 101 97 97 93 90 87 79 82 82 79 78 82 87 93 95 89 84 76 68
119 194 223 211 196 201 202 190 234 331 304 291 299 324 70 113 133 144 157 170 175 183 178 163 157 149 136 129 118 107 95 89 84 81 81 81 79 72 72 70 72 74 74 84 88 80 74 67 56
160 207 222 231 209 193 205 216 217 180 246 229 223 215 151 136 154 175 186 188 192 189 182 179 175 164 152 141 131 121 110 102 89 89 90 90 84 72 64 64 54 56 61 64 71 68 62 63 61
186 243 223 242 214 205 215 211 238 221 238 235 206 176 159 175 192 201 202 201 190 184 192 188 177 169 164 148 143 139 134 129 119 112 110 107 97 86 81 76 71 70 71 79 74 80 73 70 64
224 246 253 251 269 220 220 232 234 254 261 284 215 158 182 199 212 220 217 208 195 197 197 193 183 176 169 158 157 149 153 143 136 131 128 124 125 123 114 104 94 94 99 111 100 90 82 66 53
222 236 269 275 256 243 237 261 235 256 255 246 218 224 218 215 217 215 218 216 211 210 205 194 187 179 169 170 168 163 162 151 146 146 144 142 141 141 141 139 117 104 113 131 133 122 102 74 50
68 333 300 258 232 237 228 277 239 244 229 248 247 246 244 239 232 226 224 219 216 213 203 194 188 177 174 174 170 163 161 155 156 162 158 155 149 150 153 156 150 146 133 121 106 99 92 80 52
45 18 274 265 202 205 180 260 262 221 206 245 253 255 257 258 248 245 238 231 223 207 197 193 181 177 179 173 167 164 161 161 165 166 167 168 164 156 153 160 178 165 133 125 121 111 92 85 67
38 236 247 271 215 190 201 254 270 246 223 254 259 256 255 268 270 260 242 232 225 209 196 186 182 180 180 171 161 158 159 165 169 169 172 178 174 165 164 173 179 161 141 133 136 112 131 156 289
218 225 242 242 243 207 238 258 275 259 228 252 265 263 258 259 265 268 255 234 215 204 192 183 178 177 170 160 147 147 155 167 170 178 184 179 180 177 173 172 166 159 151 152 148 134 104 153 201
201 218 251 256 231 226 244 261 268 255 242 251 258 259 260 258 266 275 274 257 202 189 183 180 177 178 166 165 172 177 188 185 186 188 186 184 183 179 177 175 168 170 178 186 171 157 143 71 102
228 242 259 278 258 239 270 272 263 241 233 235 241 248 255 266 277 288 296 342 240 207 193 182 182 180 178 180 180 177 169 177 184 182 187 187 187 185 183 178 179 183 182 178 175 156 161 152 139
230 227 238 256 311 294 302 293 264 251 238 247 247 245 247 247 256 273 281 266 256 258 215 189 182 178 179 170 147 126 111 105 157 193 202 197 195 194 192 186 179 184 184 192 193 182 177 188 198
244 229 223 235 261 273 208 284 272 255 272 260 259 261 263 269 266 276 282 281 254 251 232 191 172 170 171 163 166 170 177 187 196 190 197 202 198 196 191 191 183 184 190 193 195 190 188 175 195
226 230 210 219 220 263 229 246 279 264 263 262 256 254 266 271 267 277 271 249 265 296 308 181 156 159 165 170 175 180 184 185 168 160 178 191 197 193 185 187 184 186 194 197 195 190 192 190 190
173 53 30 71 169 253 223 210 272 228 228 256 256 254 268 284 285 305 337 18 13 19 24 57 135 163 169 174 178 184 183 170 158 169 186 195 198 201 187 189 190 190 196 198 200 196 196 201 199
142 118 16 332 270 247 204 211 249 236 232 238 249 258 269 270 276 318 6 4 351 358 6 355 160 177 178 179 186 193 191 183 183 188 196 195 199 213 213 204 205 204 203 200 195 197 203 201 203
201 175 181 211 232 266 231 231 247 234 248 286 296 290 321 326 322 319 320 322 316 328 346 324 229 210 193 188 195 192 190 190 194 193 195 203 211 214 206 204 205 207 204 201 192 204 207 204 210
174 206 198 174 237 268 254 265 289 230 271 303 337 356 319 311 319 325 334 337 340 336 334 290 268 247 220 197 190 187 193 196 196 191 191 202 213 208 189 192 195 206 207 206 195 207 214 207 214
198 167 142 170 192 247 266 250 247 238 246 272 304 312 312 327 337 340 342 339 346 349 356 14 9 267 248 197 186 166 188 203 190 176 189 197 208 202 185 182 186 200 213 208 198 210 214 209 227
170 179 180 183 196 199 253 260 236 219 218 236 267 297 304 307 305 321 336 342 357 7 13 11 5 11 9 8 78 116 133 128 162 176 191 199 198 195 196 187 188 201 217 213 203 217 216 219 232
195 191 170 189 234 225 242 264 300 208 254 248 279 306 325 323 316 338 351 1 12 9 3 359 1 7 0 3 23 61 86 98 113 194 229 194 188 194 197 187 191 211 223 222 214 223 222 224 233